Wind_Speed
2 1 1 2 3 4 4 4 3 4 4 6 7 6 8 8 8 10 3 4 1 5 9 12 15 19 20 20 19 18 17 17 16 16 14 13 12 11 11 12 12 12 10 7 6 6 7 8 9 10 11 12 14 16 17 19 19 19 18 17 16 16 16 15 14 14 13 12 12 12 12 12 12 12 11 11 11 11 11 10 10 9 8 8 9 9
2 1 3 4 4 3 3 3 3 4 5 6 6 7 8 7 8 8 2 3 1 3 8 11 16 20 19 19 20 18 17 18 17 16 16 16 14 12 12 13 13 11 8 6 7 8 9 9 10 11 11 13 15 16 18 20 20 19 19 19 17 16 17 17 16 14 13 13 12 10 10 10 10 10 10 10 11 11 10 10 10 9 8 8 9 9
1 2 4 3 3 2 1 1 2 4 5 6 5 6 6 4 6 5 2 2 1 3 8 10 13 19 20 19 21 20 18 16 15 15 14 15 14 13 12 12 12 11 9 8 8 8 9 10 10 11 11 13 15 16 18 19 19 19 20 20 18 17 17 17 17 15 14 12 11 10 9 9 9 10 10 10 9 10 10 10 10 9 9 8 8 8
1 3 4 2 1 2 2 1 2 5 5 6 5 6 6 5 6 4 1 1 4 6 9 11 9 16 19 16 16 15 12 11 10 10 10 10 12 12 10 8 9 10 10 9 10 8 7 10 10 11 12 12 14 15 17 19 20 20 21 21 20 19 18 17 17 17 15 12 10 10 10 9 10 10 10 10 11 11 11 11 10 10 9 8 8 8
3 3 2 1 0 3 3 3 3 4 5 6 6 5 7 8 8 8 6 9 10 7 5 9 8 10 9 7 7 4 2 4 4 5 7 8 10 10 9 8 7 8 8 9 11 11 7 8 10 11 12 12 14 16 18 19 21 21 21 22 21 20 19 17 17 18 15 12 11 9 9 10 11 12 12 12 12 12 11 10 9 9 9 8 8 8
3 2 0 1 0 2 3 5 3 2 6 5 1 3 6 8 9 10 11 11 9 3 3 4 8 6 3 5 7 2 1 4 3 4 8 7 7 8 8 8 8 7 8 8 10 10 8 7 9 11 12 13 14 16 18 19 21 21 21 21 21 20 19 18 18 18 16 13 12 10 10 11 11 11 11 11 10 10 10 9 8 8 9 9 8 8
2 2 1 1 2 3 4 6 2 0 6 5 2 4 6 7 9 10 9 6 6 6 2 2 5 7 8 8 4 3 5 7 2 2 5 5 3 3 4 6 7 7 8 8 8 8 8 8 8 10 12 14 15 16 16 18 20 21 20 21 22 21 20 19 19 19 18 15 13 13 12 12 11 11 10 9 9 9 8 8 8 8 8 9 9 8
2 2 2 1 3 5 5 4 0 1 5 4 2 4 6 7 9 9 7 5 5 9 5 5 5 6 8 5 2 2 5 7 7 7 7 7 6 5 4 5 6 7 8 8 8 8 9 9 8 9 10 12 14 14 15 17 19 21 21 21 22 21 20 19 20 20 20 17 14 14 14 13 13 12 11 10 9 9 9 8 9 8 8 9 9 9
0 1 2 2 4 4 3 2 3 1 4 3 3 5 7 7 9 7 6 7 5 7 6 5 5 5 7 4 2 2 3 8 9 10 9 8 8 7 6 7 7 8 8 8 9 10 10 10 9 9 9 10 12 13 15 17 17 19 20 21 21 22 21 20 21 21 21 19 16 14 14 14 13 12 10 10 9 9 9 9 9 9 8 9 9 9
1 2 2 2 3 3 4 3 2 2 4 3 4 6 7 7 8 6 6 6 5 6 5 2 3 4 7 7 4 0 3 7 8 9 9 8 8 7 7 8 8 9 9 9 9 10 10 11 11 10 9 11 11 13 14 16 16 17 19 21 22 23 22 21 22 22 21 21 18 15 15 15 13 11 10 10 10 10 10 10 9 9 8 8 8 8
3 2 1 1 3 3 5 3 1 3 5 5 6 8 8 7 6 5 5 4 4 5 1 3 1 3 5 8 7 2 1 3 5 8 9 9 8 7 8 10 10 11 10 9 10 10 11 13 12 11 12 13 12 12 13 15 16 17 19 21 23 24 22 21 22 22 22 21 19 17 16 16 14 12 11 11 11 11 10 10 9 9 8 8 8 8
4 1 1 1 1 2 4 4 3 3 3 4 5 7 8 5 3 3 4 4 4 3 2 3 1 3 5 6 6 3 2 1 2 6 9 10 9 6 7 10 11 11 10 9 10 10 11 13 12 11 12 13 12 13 14 15 16 17 19 20 22 24 23 22 22 23 22 21 20 18 17 16 15 13 13 13 12 12 11 11 10 9 8 8 8 8
2 2 2 2 1 2 3 5 2 4 4 4 5 5 7 6 3 4 4 3 5 1 3 2 2 4 8 9 10 10 7 4 3 4 7 9 9 8 8 10 10 10 10 9 9 9 9 10 10 11 13 12 12 14 15 16 17 18 19 20 22 24 24 22 21 22 22 21 20 19 17 16 14 14 14 13 13 12 11 11 10 10 9 9 8 8
2 2 2 3 2 1 3 5 3 1 2 4 5 5 5 6 6 7 6 6 7 2 4 2 2 6 8 7 8 9 8 7 5 4 5 6 7 8 9 9 9 9 10 9 9 9 9 9 10 12 13 12 12 13 15 16 17 17 18 20 22 23 23 23 22 22 22 21 20 18 17 16 14 14 14 13 13 13 12 11 11 10 9 9 9 9
4 1 1 1 1 1 2 3 4 5 7 5 3 3 4 4 5 7 7 7 8 8 4 1 0 5 5 5 9 10 7 6 4 3 3 3 4 5 6 7 9 11 11 11 10 11 11 12 14 14 14 13 13 13 14 14 16 17 18 20 22 22 23 23 22 22 22 21 19 18 17 16 14 13 13 13 13 12 12 12 11 10 10 9 9 9
5 3 1 2 2 1 1 1 2 4 6 2 1 3 3 3 4 7 9 8 7 8 6 2 3 5 6 9 11 6 7 7 5 4 4 8 9 7 7 8 11 12 13 12 12 12 13 14 16 15 15 14 13 13 13 14 15 17 18 19 21 21 22 23 23 22 21 20 19 18 18 16 15 14 13 13 13 13 13 12 11 10 10 10 9 9
5 5 1 2 1 0 1 1 1 3 4 2 3 4 3 2 3 6 9 5 3 6 7 5 6 6 7 7 4 6 9 10 9 9 11 14 15 12 10 11 12 13 14 15 15 14 14 16 18 17 16 15 15 13 13 14 15 17 18 18 19 20 21 22 23 21 20 20 19 18 18 17 16 15 14 13 13 13 12 12 11 11 10 10 10 9
4 8 6 3 1 1 1 2 3 2 3 3 3 5 5 2 2 3 5 4 5 8 7 7 10 10 8 5 4 7 13 14 11 13 16 15 14 14 13 13 15 16 17 18 18 16 14 15 18 20 18 17 17 15 15 15 14 16 17 17 18 20 22 22 22 21 21 20 19 18 18 18 17 16 16 14 13 13 13 12 11 11 11 11 10 10
2 7 4 1 2 1 3 3 3 3 2 3 3 4 4 2 2 4 5 5 7 8 7 9 11 10 8 5 6 12 18 16 13 15 16 15 14 14 14 15 17 19 17 16 16 16 14 14 19 21 19 18 18 16 15 15 14 14 16 17 18 20 21 21 21 20 21 21 20 19 19 18 18 16 15 14 14 13 13 13 12 12 11 11 10 10
2 4 2 1 2 2 2 2 3 0 1 2 3 2 1 1 4 5 5 5 6 8 8 8 9 8 7 5 8 17 20 16 15 16 16 16 15 14 14 15 17 18 17 15 15 16 15 16 20 21 18 17 17 16 16 16 14 14 15 16 17 18 18 20 21 21 21 20 21 21 20 18 18 17 15 14 14 14 14 13 13 13 12 11 11 10
2 3 5 3 2 3 2 0 4 4 1 1 2 2 1 2 2 3 5 3 4 7 8 7 7 9 9 7 12 19 18 14 15 16 16 16 17 17 16 16 17 17 17 16 15 16 16 16 20 22 18 15 14 15 18 19 16 14 14 15 16 17 18 19 21 21 21 21 22 23 22 19 18 17 16 15 14 14 14 14 13 13 12 11 11 11
2 3 7 7 5 7 4 2 3 3 2 3 4 4 5 5 3 6 6 1 1 5 5 7 9 10 11 10 12 15 13 14 16 15 15 16 19 19 18 18 18 16 16 16 16 17 15 15 20 23 22 17 12 12 16 18 17 15 14 14 15 16 17 18 19 20 21 22 23 23 22 20 18 17 16 15 15 15 14 14 14 13 12 12 11 11
2 3 6 7 8 8 2 5 4 3 1 3 4 2 3 4 4 6 7 4 4 4 2 4 8 9 11 10 11 13 12 14 15 15 15 17 18 20 19 19 19 17 16 16 15 16 15 16 21 23 24 21 16 15 17 18 17 17 15 14 14 16 17 17 18 20 21 23 24 23 22 20 18 17 17 16 15 15 15 15 14 13 13 12 11 11
1 3 4 7 8 5 3 6 5 2 1 2 3 3 3 3 2 4 6 4 5 7 6 6 8 9 10 10 11 14 15 15 13 14 16 17 16 19 19 19 18 17 17 16 15 14 13 17 19 19 21 22 22 22 22 18 17 17 16 15 15 16 17 16 18 20 23 23 24 23 22 20 19 18 18 17 16 16 16 16 15 14 13 12 11 11
1 2 4 6 7 5 1 2 2 0 2 4 5 3 3 1 1 0 4 2 4 10 10 8 8 9 9 11 14 16 17 16 14 14 17 16 16 17 17 17 17 16 16 17 16 15 15 16 15 15 19 21 22 24 24 21 19 18 17 17 16 16 16 17 18 21 24 24 24 23 22 20 19 19 19 18 17 17 17 16 15 14 13 12 12 11
3 4 4 4 6 8 7 6 6 6 6 7 7 5 3 4 4 2 4 4 5 8 9 8 9 11 13 16 17 18 18 16 16 17 17 16 17 17 16 15 15 15 15 17 17 15 14 14 13 14 18 21 21 23 25 23 21 19 18 18 17 17 16 17 19 22 24 25 24 23 22 21 21 20 20 19 18 17 17 17 16 14 13 13 12 12
3 4 5 5 6 7 8 9 10 11 10 10 13 12 5 4 5 3 4 5 6 7 9 10 11 13 18 18 18 19 18 16 16 19 19 18 18 18 15 14 14 14 14 15 15 14 15 15 15 16 18 21 23 23 24 25 23 20 19 19 17 17 16 16 20 22 24 24 23 22 22 22 21 20 20 20 19 18 18 17 16 15 14 13 12 12
3 5 3 4 7 10 12 14 15 12 12 14 15 15 10 3 7 5 6 9 8 7 9 12 14 16 18 19 20 19 17 15 17 19 18 18 18 18 15 15 16 16 15 15 15 16 16 16 17 17 17 20 23 23 23 24 24 22 20 19 18 17 16 17 20 22 22 23 22 22 22 22 21 20 20 19 19 18 18 17 17 16 15 13 13 12
4 5 0 2 6 12 14 16 16 13 13 15 13 14 16 9 6 8 10 12 9 7 11 15 18 19 18 19 21 18 14 14 17 18 17 17 19 18 16 16 17 17 17 17 17 17 16 16 17 16 17 19 21 23 24 24 24 23 21 20 20 17 16 18 20 21 21 22 23 22 21 21 21 20 20 19 19 19 18 18 17 16 15 14 13 12
3 3 1 0 7 11 14 15 13 11 13 14 13 14 16 14 9 8 10 12 12 14 17 18 21 21 18 19 18 14 12 13 15 15 16 18 19 17 16 17 17 16 17 18 18 17 16 16 16 16 17 19 21 23 23 23 23 23 22 22 22 19 17 18 19 20 20 22 23 22 21 21 21 21 20 20 20 19 19 18 17 16 15 14 13 12
2 2 3 1 8 10 10 9 6 9 13 14 15 14 12 13 12 8 8 9 10 13 16 17 18 17 14 14 13 12 12 14 15 15 16 18 18 16 16 16 16 17 18 18 18 17 16 16 17 16 16 18 22 23 23 23 24 23 22 22 22 20 18 18 19 19 20 22 22 21 21 22 21 21 21 21 20 20 19 18 18 17 16 15 14 13
2 3 1 2 8 9 8 9 11 14 14 12 13 13 12 12 10 7 5 6 8 9 12 13 12 11 10 11 13 14 15 16 17 16 16 16 17 16 15 15 16 17 17 18 17 17 17 17 17 17 18 20 23 23 23 25 25 23 23 22 22 21 18 18 18 18 20 21 20 21 21 21 21 22 22 21 21 20 19 19 18 18 17 16 15 14
1 4 4 4 6 9 11 15 16 16 11 6 5 6 9 11 11 9 6 7 10 9 9 9 10 11 13 13 14 17 18 18 17 15 14 16 17 15 13 14 16 17 18 18 18 18 18 16 16 18 21 23 23 23 24 25 24 22 23 25 23 20 18 18 17 17 19 19 20 20 20 20 21 21 21 21 21 20 20 20 19 19 18 16 15 14
1 3 4 3 3 9 14 16 14 11 6 4 5 5 8 10 11 11 9 9 11 11 11 12 14 14 14 13 15 18 18 18 17 15 15 17 15 12 12 14 16 17 18 18 17 18 17 15 18 22 24 24 25 25 25 23 22 23 25 27 25 19 16 16 16 17 18 20 20 20 19 20 20 20 20 20 21 21 21 21 20 20 19 17 16 15
2 4 4 2 3 7 11 11 9 7 6 9 12 8 5 7 8 11 14 15 14 14 15 16 14 13 14 14 16 17 17 17 16 16 19 19 12 9 13 15 17 18 18 17 18 18 17 17 20 23 25 26 27 27 24 20 21 23 25 26 25 20 17 16 16 16 18 19 19 18 19 20 20 20 20 20 21 22 21 21 21 20 20 19 17 16
4 4 3 3 4 6 7 5 5 7 12 18 17 6 1 2 6 10 13 13 13 14 14 12 11 12 15 16 16 15 15 15 14 14 16 12 9 13 15 16 17 18 17 17 17 18 19 21 23 24 27 29 29 26 22 20 20 21 22 21 21 21 20 17 16 17 17 18 18 18 21 23 22 21 21 22 23 23 22 22 21 21 22 21 18 16
5 4 3 4 4 4 5 6 7 10 13 13 8 0 2 1 3 5 9 12 14 12 7 6 11 15 16 16 16 14 12 12 12 10 9 10 16 19 18 17 18 19 19 20 22 23 25 26 26 28 29 30 29 26 22 21 22 22 21 18 17 18 18 15 16 17 17 19 19 19 23 27 26 25 25 26 26 25 24 23 22 22 24 23 18 16
6 5 3 4 3 3 5 7 7 8 8 7 3 5 5 2 1 1 7 11 9 4 3 8 14 16 16 16 15 13 11 11 11 8 9 15 20 20 19 18 18 19 21 23 25 26 27 27 29 31 30 28 28 27 24 22 21 21 20 17 15 16 16 15 17 18 18 19 20 21 24 28 29 29 29 29 29 28 27 25 23 22 25 24 20 17
6 5 3 4 6 4 5 6 6 5 7 9 7 4 6 2 1 2 7 8 2 2 6 11 14 15 15 15 14 12 9 10 10 9 13 18 20 18 18 18 19 22 25 26 26 26 27 29 30 31 29 27 28 29 27 24 22 20 18 17 15 15 15 16 18 18 19 19 20 23 27 29 30 32 32 31 31 30 28 27 24 22 23 24 22 18
5 4 4 6 7 6 5 6 6 5 8 13 11 4 4 3 1 4 9 6 4 9 13 12 13 16 14 12 12 10 9 10 11 12 16 19 19 19 20 20 20 23 25 27 28 30 30 30 29 27 26 27 28 30 30 27 23 20 19 17 15 14 16 19 20 19 20 19 20 23 27 28 30 32 33 34 34 31 28 26 25 24 24 23 21 18
3 3 4 5 6 6 7 7 6 6 9 11 8 4 2 2 3 6 9 9 12 17 17 14 15 16 13 12 11 9 9 12 14 16 18 19 19 20 23 26 28 29 30 31 33 34 33 31 29 28 29 30 30 30 30 27 23 21 19 17 16 15 19 23 22 21 20 19 21 24 26 28 30 32 34 35 34 31 28 26 26 26 25 23 19 17
2 2 3 4 4 5 5 6 7 7 6 4 2 2 2 3 7 9 12 15 17 18 18 17 17 17 16 15 13 12 14 17 18 19 20 20 21 20 22 26 28 30 33 36 38 38 35 32 31 31 32 34 33 31 29 26 24 23 21 17 17 18 21 24 24 23 21 20 22 24 25 27 30 31 32 31 31 30 28 27 27 27 25 22 19 18
2 2 4 4 3 4 5 4 5 6 2 2 3 2 2 7 13 13 14 16 17 17 18 17 16 16 17 16 16 17 19 19 20 21 21 21 22 21 22 24 24 26 30 33 35 37 36 33 31 32 33 35 36 34 31 28 27 26 22 20 21 22 24 25 24 22 21 21 22 23 24 25 28 29 30 29 29 29 27 26 26 26 26 23 21 19
2 2 6 5 3 4 6 4 6 9 8 8 11 11 10 13 15 15 14 14 14 15 14 13 14 16 17 17 18 19 19 19 20 21 21 21 21 21 22 24 25 27 30 31 33 36 36 32 31 32 34 37 37 36 34 31 29 27 25 25 26 25 24 25 23 21 21 22 24 24 24 24 25 27 29 29 28 27 26 26 27 27 26 25 24 21
4 3 3 5 4 6 8 10 12 14 15 15 14 13 16 17 17 17 16 14 12 12 12 11 13 16 16 16 17 17 16 17 18 19 19 19 20 20 21 24 26 29 30 31 34 36 34 33 33 33 34 36 38 38 37 35 31 28 27 30 30 27 25 25 24 23 23 24 25 26 25 23 23 24 27 29 29 28 27 27 28 28 27 27 26 22
3 1 2 4 6 9 11 12 12 14 16 17 15 14 16 17 16 16 16 14 12 13 12 12 13 15 15 16 16 15 15 17 18 19 19 18 18 19 21 23 26 30 31 31 34 35 35 34 34 33 32 34 38 39 39 37 34 30 30 32 30 27 26 27 26 25 24 24 25 26 24 20 19 21 24 28 30 29 27 28 30 31 29 29 26 20
3 5 4 7 9 10 9 8 14 18 18 17 15 15 17 17 16 14 13 12 13 13 13 13 14 15 15 16 16 16 17 18 19 18 17 17 17 18 19 20 23 28 31 32 34 37 37 34 32 32 32 34 37 38 37 37 36 34 32 31 30 29 29 28 25 24 24 24 25 25 22 18 17 18 22 26 29 28 25 26 30 30 31 32 27 18
4 4 7 9 11 12 11 13 20 21 18 16 16 15 16 17 16 14 12 12 13 14 14 16 16 15 15 16 18 18 18 18 19 18 16 15 16 16 16 18 23 28 31 33 35 37 36 33 32 33 33 34 36 38 36 36 37 36 33 31 31 30 28 27 25 24 23 24 25 25 21 17 16 18 21 25 29 29 27 27 29 29 31 36 35 26
7 6 8 11 11 11 10 16 22 20 17 18 20 19 18 18 17 16 16 16 16 17 17 18 20 19 18 18 17 18 19 18 18 18 18 17 16 16 17 22 28 31 32 34 35 35 34 33 33 33 33 34 37 38 37 36 36 36 34 32 32 30 27 26 26 24 23 23 24 24 21 16 15 17 20 24 27 29 29 30 31 30 30 35 40 36
8 7 8 10 9 8 10 16 18 15 13 15 18 19 19 18 17 17 18 18 18 18 18 19 22 23 23 23 20 18 18 19 19 20 19 17 17 19 22 27 30 30 32 33 34 34 35 34 34 34 34 35 37 37 35 35 36 36 35 34 33 31 28 26 25 23 22 22 21 21 19 15 14 16 18 20 22 24 25 26 28 28 27 30 35 36
7 8 9 8 7 9 13 15 14 11 11 14 17 18 17 15 15 17 19 19 18 19 20 20 21 21 20 21 23 21 19 20 22 24 21 20 23 26 28 29 29 29 32 33 31 31 33 35 35 34 33 34 36 36 35 36 37 37 36 36 35 32 29 26 22 19 17 17 18 18 17 14 13 14 16 18 19 21 22 21 21 23 24 24 28 30
Wind_Direction
307 281 51 15 17 10 357 360 341 325 316 304 300 292 288 285 283 288 298 111 134 277 264 262 268 269 271 272 269 269 268 265 256 244 244 247 245 248 249 253 255 256 262 258 238 217 200 201 201 203 207 207 210 210 206 206 204 204 201 198 198 198 197 197 197 201 206 211 219 223 227 232 233 229 227 228 231 231 230 231 234 244 251 250 257 268
274 299 46 31 13 1 345 340 320 309 304 294 285 284 284 280 286 298 360 102 152 268 272 278 285 279 274 273 272 269 265 263 257 245 242 245 242 243 246 249 252 254 257 241 222 214 202 199 198 198 203 205 208 210 207 207 208 206 205 204 202 199 198 200 200 201 206 211 216 221 228 235 237 232 229 234 234 227 225 230 235 241 244 245 255 264
232 85 59 39 25 2 330 346 306 297 288 280 275 274 286 311 313 310 84 101 197 226 279 299 299 287 281 276 271 267 262 261 260 254 251 254 252 243 239 244 248 251 252 247 245 231 201 191 194 197 204 210 211 212 211 210 210 208 208 208 205 202 201 202 202 202 206 212 215 221 229 236 240 238 235 238 235 228 230 233 233 236 236 240 251 259
325 79 62 36 12 307 285 341 297 286 268 251 259 275 289 333 336 301 139 353 271 237 279 304 298 283 282 275 266 260 261 268 273 273 271 270 267 256 250 253 247 247 252 258 268 261 213 187 190 200 205 210 213 213 213 211 210 210 211 209 206 204 203 202 202 204 206 209 212 219 229 239 244 246 244 242 240 236 234 232 232 231 229 236 249 258
62 73 61 123 318 324 313 302 278 284 285 244 235 271 295 317 321 296 304 315 291 246 256 294 285 271 275 283 278 244 208 270 264 272 274 260 256 258 266 268 247 242 254 264 275 281 258 202 196 205 207 207 211 214 214 211 209 210 211 209 206 204 204 202 201 203 205 205 207 214 228 239 241 243 241 239 241 235 225 225 230 227 226 236 251 259
85 88 232 199 300 333 309 293 282 285 300 279 220 342 325 322 314 299 310 318 304 261 185 293 305 291 292 311 311 355 11 286 229 229 269 266 242 235 244 254 248 247 256 261 266 277 275 240 212 205 205 208 214 218 216 213 212 212 211 207 205 204 204 203 201 200 199 199 203 205 215 225 230 234 230 228 232 225 219 226 230 226 230 239 248 254
91 113 198 319 317 303 288 280 259 182 300 301 31 358 330 319 305 297 309 308 298 304 235 196 290 290 303 313 331 16 321 311 327 271 300 319 290 242 247 265 271 274 274 272 267 268 269 252 227 212 210 211 218 222 218 216 215 213 211 207 204 204 204 202 199 198 198 199 202 206 215 225 233 238 236 233 231 226 227 234 235 235 238 238 241 249
109 136 190 257 284 279 281 279 190 99 296 300 36 344 319 307 293 288 297 271 270 306 286 200 220 266 295 314 79 61 324 351 11 359 357 2 3 359 343 331 320 309 305 303 293 286 283 269 247 234 226 221 224 225 217 216 216 213 211 208 205 205 204 201 197 196 199 200 201 207 217 227 234 240 243 241 234 229 232 235 237 239 238 235 236 243
232 265 214 246 263 272 302 6 37 341 273 316 20 331 305 291 283 274 274 268 270 303 291 192 193 256 286 307 104 141 359 20 6 347 347 350 1 8 3 359 349 338 331 320 311 306 305 295 279 266 251 240 235 227 218 217 216 213 212 209 207 207 205 201 197 197 201 203 202 204 214 224 230 235 238 236 232 231 232 235 238 239 239 239 238 242
51 18 4 289 276 303 356 21 26 265 261 331 338 293 272 254 259 257 252 272 274 273 282 156 170 275 297 308 319 144 23 13 353 337 334 336 352 8 14 12 0 354 345 330 323 315 310 301 288 277 265 255 243 230 223 220 217 215 213 210 209 208 205 201 198 197 201 205 204 203 211 220 225 228 228 228 229 229 232 236 238 238 240 240 238 242
96 55 331 306 309 330 342 321 211 251 281 321 306 280 273 244 225 236 240 262 269 251 310 59 75 311 304 300 319 21 88 360 339 323 320 329 351 14 27 26 14 360 346 334 328 319 314 307 290 270 259 256 248 234 223 220 219 218 214 212 212 210 206 202 199 199 200 201 203 204 210 218 222 225 225 226 229 228 230 234 235 237 238 237 238 241
135 143 189 127 321 302 303 276 197 196 259 283 280 284 298 280 212 230 220 207 255 272 57 58 348 294 268 274 309 327 248 252 312 304 313 327 336 356 21 29 21 360 340 330 326 321 319 313 301 280 264 256 247 236 225 221 220 218 216 214 213 212 207 203 199 199 199 198 201 205 209 216 220 222 223 225 228 228 229 232 235 238 236 237 239 238
174 164 146 139 177 208 283 294 212 171 194 239 275 297 311 317 315 291 275 256 281 301 129 115 360 279 256 268 285 291 301 339 350 303 314 326 323 327 346 4 5 348 330 323 319 316 309 305 304 295 282 266 245 235 229 224 219 218 218 216 215 213 207 203 200 199 200 199 200 204 208 214 218 221 223 224 227 228 228 231 233 233 233 236 238 236
351 132 165 177 152 165 270 304 311 257 271 292 313 324 318 325 322 304 304 299 297 293 158 143 10 280 265 278 282 291 326 5 15 355 341 334 324 322 325 327 322 318 321 319 314 310 304 298 297 294 290 277 257 246 236 227 221 219 220 218 217 215 208 203 202 200 200 200 200 203 206 211 215 219 221 223 226 227 226 228 229 228 232 236 239 239
327 324 228 201 72 75 267 319 344 316 299 307 333 320 305 309 301 296 308 308 304 310 300 161 334 279 286 333 322 324 3 37 42 44 31 355 331 307 301 302 305 317 329 326 314 307 303 302 299 294 289 278 269 262 250 235 226 222 222 221 218 215 209 204 203 201 200 200 200 202 205 209 213 216 219 222 225 225 224 225 226 226 231 236 239 241
303 306 94 86 60 313 297 36 31 302 289 308 340 297 307 326 311 290 291 299 307 306 296 229 222 270 296 320 323 352 56 62 48 53 31 4 356 336 321 327 327 330 333 326 314 308 307 309 305 298 291 282 276 270 258 245 234 227 226 225 221 218 211 205 203 201 199 199 199 201 204 207 211 214 217 220 222 223 223 222 222 225 230 235 237 240
313 299 221 125 125 139 353 78 177 301 319 339 315 320 331 310 303 293 285 293 295 277 276 271 279 297 314 323 356 61 40 15 10 15 4 352 349 342 337 337 333 332 330 323 317 313 316 319 315 309 305 300 292 281 267 255 243 234 232 228 223 219 213 207 203 200 198 198 199 201 203 205 210 213 216 220 221 221 221 220 221 225 230 232 234 237
324 294 285 281 290 134 130 264 240 243 315 311 314 335 326 268 217 275 278 293 296 284 289 304 308 314 320 333 35 24 355 350 359 360 350 345 344 341 339 337 333 331 326 322 321 320 320 325 324 320 317 314 309 300 288 277 261 246 236 231 226 219 212 208 203 199 198 197 197 199 202 204 208 213 217 220 222 220 219 219 221 225 227 229 230 231
319 292 304 5 319 245 170 249 262 180 233 293 295 312 316 299 281 283 284 300 302 294 293 305 314 312 308 336 2 342 337 342 349 346 342 343 343 340 338 335 333 329 324 322 324 324 324 325 325 322 318 318 317 310 302 292 274 256 243 235 231 223 216 209 202 198 198 196 198 200 201 203 207 212 216 218 220 218 218 219 221 224 223 225 227 229
304 286 322 97 246 260 189 233 313 13 188 245 257 252 172 237 278 292 299 296 291 288 291 308 319 304 303 343 339 325 329 339 342 340 338 339 339 339 339 335 332 329 324 323 323 324 326 325 325 322 317 317 315 311 313 307 283 262 251 241 235 228 219 210 203 201 198 195 199 204 204 203 206 210 213 214 216 216 218 220 221 223 222 224 227 230
279 254 290 291 250 295 301 334 350 349 339 281 289 295 297 269 266 285 281 266 283 291 296 309 308 292 296 321 320 318 328 335 337 339 337 338 342 340 336 332 329 326 324 326 326 325 325 324 324 323 317 310 304 307 318 316 297 274 257 245 238 230 220 212 205 202 198 197 201 207 208 206 204 207 209 212 214 215 218 221 221 221 220 221 225 228
316 270 288 306 308 310 326 75 44 17 7 320 309 314 315 306 302 295 291 337 350 292 294 300 293 285 284 296 311 315 322 329 337 344 340 340 341 335 329 327 327 327 329 330 330 328 327 326 326 324 320 310 295 301 318 316 303 287 267 249 240 232 225 217 208 201 199 202 205 207 210 209 204 203 206 209 213 215 217 219 220 219 216 219 224 226
341 285 281 291 287 293 6 94 79 54 34 264 261 274 307 297 286 288 301 337 319 282 269 272 267 271 281 294 315 320 321 328 340 350 343 338 334 328 325 326 327 331 335 335 335 334 334 332 330 329 328 323 315 316 323 320 310 298 282 260 242 232 228 221 213 208 204 205 207 207 208 207 202 201 205 207 211 214 216 217 219 217 213 217 223 225
334 269 284 293 285 282 113 111 99 92 185 248 256 242 246 279 295 282 290 318 303 278 272 270 264 271 291 309 321 323 326 331 343 349 340 333 328 325 326 327 330 337 338 338 339 337 336 335 333 333 333 332 331 327 326 322 316 308 295 279 258 242 232 220 214 214 211 209 208 207 207 203 199 200 203 205 210 213 214 215 216 215 212 216 220 222
316 285 312 315 313 322 5 87 67 6 284 313 306 248 197 203 79 276 275 263 255 263 264 269 273 275 292 310 315 318 326 334 341 342 335 330 328 327 327 330 336 340 336 334 335 334 336 337 336 336 334 334 333 330 327 322 318 314 304 292 276 259 241 220 214 216 215 212 209 207 205 200 198 201 202 204 209 211 211 212 213 212 212 214 218 221
292 294 312 314 325 333 329 330 336 327 320 315 301 274 206 178 174 225 282 270 259 273 271 264 268 279 295 307 311 317 327 334 337 335 332 331 330 329 331 334 337 336 332 332 332 333 335 334 334 335 335 334 332 330 328 323 319 317 310 301 287 271 250 224 216 218 216 212 209 206 203 199 199 201 202 203 208 209 208 209 209 210 211 212 216 219
287 274 254 252 275 296 300 302 308 315 313 298 292 290 274 168 169 226 276 269 280 299 286 271 275 286 297 306 312 319 327 334 334 332 330 331 331 330 332 334 331 328 329 332 332 333 334 332 332 334 334 333 331 329 328 326 322 317 312 306 295 278 256 229 219 219 216 211 209 206 203 201 200 201 201 203 206 206 205 205 206 207 208 209 212 216
287 282 256 230 246 264 278 288 293 298 291 280 284 292 290 203 157 185 231 253 285 305 282 279 291 295 297 305 310 315 326 333 330 327 325 327 328 328 329 328 325 325 329 332 332 334 333 330 330 330 330 330 329 328 329 329 325 319 312 309 302 283 259 237 226 220 213 208 208 208 206 203 201 200 201 202 203 203 202 201 203 203 204 205 209 215
293 285 328 148 244 260 272 279 280 278 273 269 269 280 286 273 194 187 227 246 259 261 260 277 291 292 293 299 303 311 326 329 324 322 320 319 320 323 324 322 321 325 329 332 332 332 331 328 325 325 325 326 328 330 331 331 329 324 318 314 309 290 263 246 233 221 212 208 210 211 208 201 199 199 198 198 199 200 199 198 198 198 199 202 207 213
275 282 55 39 270 267 266 266 264 259 262 268 269 271 278 276 250 220 234 247 246 245 253 268 279 282 284 288 295 310 324 321 317 317 318 319 319 318 316 316 319 325 328 330 329 328 327 325 323 322 323 325 328 331 331 330 329 326 319 316 313 299 272 251 237 224 216 215 214 211 205 199 197 196 195 195 197 197 196 195 195 195 196 200 205 211
251 330 52 338 292 289 278 270 258 252 260 273 282 280 278 283 278 253 236 243 246 250 256 264 272 275 279 287 301 317 320 315 315 317 320 320 318 314 311 314 320 324 326 327 325 325 325 325 324 324 325 326 328 330 330 328 326 322 319 317 315 307 285 258 242 229 223 223 218 210 203 198 196 194 193 194 195 194 194 193 192 192 194 197 202 208
257 297 327 323 306 300 313 329 316 294 281 272 271 277 284 290 289 278 250 218 218 251 274 278 277 281 298 315 319 315 313 315 317 319 319 316 313 310 310 315 322 324 325 325 324 323 324 325 326 324 323 325 327 329 329 326 322 322 324 321 317 312 294 265 244 232 229 229 222 212 204 199 196 194 194 193 193 193 191 189 189 190 192 195 199 204
308 300 307 338 312 290 312 328 316 302 297 284 264 280 293 290 283 282 274 214 212 245 277 281 281 295 312 321 314 309 316 321 319 319 316 308 305 305 309 319 324 326 326 324 323 323 323 324 324 321 320 320 321 323 324 321 319 321 326 323 316 308 294 273 251 236 234 231 224 216 207 202 199 196 195 194 191 190 187 186 188 189 191 194 196 201
325 288 290 325 298 289 310 321 311 300 312 338 335 302 277 278 282 289 292 270 259 268 268 265 279 299 309 311 310 312 317 317 315 316 308 296 292 302 319 328 328 326 325 322 321 321 320 319 319 319 318 317 317 318 317 318 319 320 324 326 319 305 288 274 256 242 238 234 226 217 209 206 203 200 198 194 189 187 186 187 189 190 191 192 193 198
279 270 277 288 262 279 303 317 316 319 330 319 315 310 282 277 285 290 288 281 281 287 281 276 286 301 305 306 310 312 310 309 312 308 294 286 290 320 333 333 328 325 323 320 320 320 318 318 318 317 317 317 316 314 313 316 320 318 320 325 324 313 295 278 260 250 246 240 232 220 209 207 205 200 199 195 189 188 188 188 188 187 188 190 191 196
267 277 286 277 259 274 302 312 298 302 306 301 299 309 45 282 287 296 292 283 287 296 292 286 292 301 307 312 313 314 313 312 308 294 284 291 333 348 339 330 325 322 319 317 318 317 316 317 316 313 314 314 312 310 310 314 318 317 314 317 320 315 305 287 266 257 253 247 239 224 214 212 208 203 199 196 193 192 190 189 187 187 190 190 188 193
244 265 289 282 257 264 298 298 285 291 297 294 288 193 107 299 308 312 297 289 296 299 281 275 298 309 316 318 317 318 318 310 301 294 308 349 356 344 333 326 320 318 316 315 314 313 313 314 313 311 310 309 308 307 307 310 315 315 311 309 312 310 302 286 269 262 257 251 242 228 220 218 215 210 205 201 198 197 196 194 188 187 192 191 185 187
232 243 276 294 267 261 293 298 298 299 296 301 357 87 93 39 30 254 280 292 306 316 276 288 306 317 322 320 319 322 319 307 301 309 342 352 344 332 326 323 319 317 316 314 312 311 312 313 312 310 308 305 305 306 307 309 310 310 308 306 307 308 299 284 275 270 264 255 243 230 226 224 220 215 211 206 203 202 202 200 191 188 193 192 187 187
233 245 263 268 263 270 282 281 285 284 273 287 317 69 103 89 130 226 279 293 330 17 311 308 314 319 320 320 322 323 317 309 308 323 340 338 331 326 326 323 322 322 319 316 314 313 311 311 311 309 307 306 308 310 313 313 309 306 304 302 303 307 301 287 279 277 273 262 247 238 236 231 224 219 215 211 208 206 205 202 195 190 192 193 192 190
209 221 225 236 251 256 251 260 276 270 263 283 310 5 102 130 178 270 287 305 3 343 329 328 325 321 321 325 328 327 323 319 319 324 330 328 325 326 328 326 325 324 322 320 320 318 315 315 314 311 309 309 310 312 314 314 309 303 302 302 300 302 306 301 292 288 283 269 253 249 247 239 230 224 220 216 213 210 205 200 194 192 191 192 192 188
211 196 213 243 266 259 247 255 268 267 273 294 326 26 124 198 256 288 300 323 340 332 329 331 330 331 339 343 340 337 331 327 323 322 325 328 328 328 329 327 326 324 323 322 322 321 320 319 318 315 311 311 311 311 311 312 308 301 301 305 304 303 311 313 305 296 289 273 259 259 256 247 238 231 225 222 217 211 204 198 195 194 193 190 187 184
262 202 217 247 260 250 247 261 275 280 290 315 353 116 164 283 308 311 314 323 328 330 336 341 343 351 357 349 342 336 329 327 327 327 329 331 329 328 328 328 327 325 324 324 323 322 320 317 316 314 312 312 311 310 309 308 306 303 299 301 305 305 310 313 306 297 288 274 266 268 264 253 244 235 227 223 216 208 203 198 195 194 191 186 185 186
267 269 274 269 266 275 267 256 276 295 343 44 323 296 295 317 324 328 329 332 339 347 353 353 353 358 354 343 338 334 330 330 331 331 331 330 328 327 326 325 323 321 320 319 318 318 316 312 310 310 310 310 310 309 309 308 309 308 303 299 304 308 308 309 303 293 285 279 276 277 271 260 249 238 228 221 212 205 200 194 190 191 189 185 184 186
191 226 289 305 324 305 287 270 287 303 317 325 319 323 338 344 350 357 353 348 352 357 357 353 350 351 346 339 335 331 329 329 329 328 327 325 323 323 320 319 319 316 315 313 312 312 310 307 305 306 307 308 308 308 310 309 308 308 303 301 307 309 307 307 305 296 290 287 284 282 277 266 252 240 229 219 210 201 195 190 188 187 187 186 185 185
200 179 306 311 290 277 276 277 286 298 313 326 333 348 360 4 10 10 359 351 351 352 351 345 341 341 340 334 330 326 323 323 322 320 318 316 315 314 313 313 312 310 309 308 307 307 306 305 305 305 305 307 307 308 309 307 305 304 303 306 310 309 307 308 308 302 296 291 287 285 279 269 255 240 228 217 207 198 193 189 186 183 183 185 187 186
260 21 359 286 276 278 275 282 304 323 335 343 356 12 11 6 7 5 356 349 344 341 341 338 333 332 331 326 322 318 315 315 313 311 308 306 306 306 306 307 307 307 308 307 307 308 309 308 306 305 305 306 307 307 306 306 304 302 305 309 311 307 307 310 308 302 298 294 290 287 282 271 254 236 224 215 206 199 194 190 187 183 183 186 187 185
19 28 331 287 289 293 290 320 352 350 344 347 355 2 360 355 353 355 350 339 334 332 330 328 324 321 319 316 314 312 310 308 305 302 301 301 301 301 301 302 304 306 307 308 310 312 312 310 309 308 307 308 308 306 305 305 305 304 306 309 309 306 306 307 304 300 297 295 292 290 285 272 249 229 217 209 203 198 195 193 191 187 186 187 187 181
13 2 322 314 310 301 308 350 358 347 341 348 349 344 346 345 342 343 339 330 326 324 320 319 318 315 313 312 310 307 304 301 300 299 300 303 303 300 298 300 303 307 309 310 311 314 314 311 310 310 308 307 307 307 305 304 305 306 307 307 307 307 306 304 301 298 296 293 291 290 286 270 244 223 211 204 201 197 194 192 191 191 193 194 192 185
334 318 323 331 323 307 322 352 353 342 339 345 341 336 340 339 334 334 332 326 322 320 318 317 316 313 310 309 307 304 301 299 298 299 301 303 302 301 301 304 306 308 310 310 310 312 311 310 309 310 308 307 308 308 306 306 306 308 308 308 307 307 305 302 301 298 294 293 289 285 281 267 239 219 209 204 203 203 201 198 195 196 200 203 202 199
353 344 342 339 329 324 338 347 345 335 328 329 330 331 332 329 325 327 325 321 320 319 317 316 313 310 307 305 302 300 300 299 299 299 300 300 301 303 305 307 308 308 307 307 308 310 310 310 310 311 310 309 310 309 309 309 308 308 308 308 307 306 304 301 299 295 293 292 287 281 276 262 233 213 206 204 203 203 205 206 205 205 205 207 208 207
12 2 1 351 328 325 332 332 330 322 311 311 317 321 321 318 319 320 318 315 315 315 315 313 309 305 301 297 296 295 294 297 301 303 303 303 304 304 304 305 307 307 305 306 307 308 311 312 312 312 311 312 312 310 309 309 309 308 309 308 307 306 304 300 296 292 288 284 281 281 276 258 230 209 202 203 202 197 195 200 207 212 212 211 209 207
Height
813 810 813 819 823 827 829 830 831 829 827 826 821 819 816 813 808 796 800 814 816 813 804 794 791 783 775 769 763 759 757 755 755 756 758 756 755 755 755 756 756 756 755 755 758 759 761 762 764 765 766 768 769 770 771 771 772 773 773 774 774 775 777 778 779 780 781 782 783 784 784 784 784 784 783 783 783 783 783 783 783 783 782 782 781 781
813 813 822 830 831 832 833 834 834 831 828 826 822 819 813 810 806 795 803 815 815 815 802 790 788 777 770 766 758 756 755 753 750 751 753 751 750 751 751 752 752 751 752 753 755 756 758 760 761 763 764 765 766 766 767 768 769 770 770 771 772 773 774 775 776 777 778 779 780 780 781 781 781 781 781 780 780 780 780 781 780 780 780 780 779 779
811 819 831 833 833 836 835 835 834 832 831 826 820 817 811 807 804 800 808 815 814 816 802 791 793 778 765 762 754 751 750 747 745 745 747 746 745 746 746 748 749 749 750 751 752 753 755 757 758 760 761 762 763 764 765 765 766 767 768 768 769 770 770 771 772 773 774 776 777 777 778 779 779 779 779 778 778 778 778 778 778 778 778 777 777 777
812 825 836 836 836 834 831 833 834 831 827 823 817 814 810 807 810 809 810 812 810 810 803 801 805 786 763 755 746 743 744 743 744 744 746 747 746 745 744 745 746 747 748 748 748 749 751 754 756 757 758 759 760 761 762 762 763 764 764 764 765 766 767 768 768 769 771 773 774 774 775 776 777 777 776 776 775 775 775 775 775 775 775 775 775 774
822 834 838 838 837 833 831 830 830 828 820 812 812 814 813 810 816 814 809 809 803 803 810 809 800 777 755 749 741 739 745 746 747 749 748 749 749 748 748 746 746 746 747 748 747 747 748 751 753 754 755 757 757 758 758 758 759 759 760 761 761 763 764 764 765 766 768 770 771 772 773 774 774 774 774 773 773 772 772 773 773 773 772 772 772 772
827 839 839 836 834 832 833 828 825 828 819 809 813 821 820 817 820 817 814 814 802 797 808 808 795 769 746 745 742 739 746 746 745 749 747 743 745 748 749 746 745 745 746 747 747 746 746 748 750 752 753 754 754 754 755 755 755 755 756 757 758 759 760 760 761 763 764 766 768 769 770 771 771 770 770 769 769 769 770 770 770 770 770 769 769 769
831 840 840 835 833 832 832 827 823 829 824 814 822 831 828 825 826 822 820 821 807 794 798 805 803 783 756 747 745 745 748 744 741 743 742 740 741 743 745 744 744 744 744 745 746 746 746 746 747 749 750 751 751 750 751 752 752 752 753 753 754 755 756 757 758 759 761 763 764 765 767 768 768 767 766 766 766 767 767 767 768 768 767 767 767 767
833 837 837 835 834 831 827 825 824 831 828 820 829 836 829 827 827 823 824 823 811 800 796 798 801 796 775 754 749 752 750 744 743 742 741 740 741 742 743 744 744 745 745 745 746 745 744 744 745 746 747 747 748 748 748 749 748 749 749 750 750 751 752 753 754 755 757 759 760 762 763 764 764 764 763 764 764 764 765 765 765 765 765 765 765 765
834 834 834 835 833 829 825 828 831 833 829 826 836 837 830 831 827 824 826 819 811 809 800 792 796 796 778 754 750 754 750 749 751 747 744 743 743 745 745 745 746 746 747 747 747 746 745 745 745 745 745 745 745 745 745 745 745 746 746 747 747 748 749 749 750 751 753 755 757 758 760 761 761 761 761 761 762 762 762 762 763 763 763 763 763 763
835 837 837 835 831 829 829 834 837 835 830 832 839 835 831 833 828 825 824 814 812 813 800 790 793 794 777 754 748 751 752 756 757 750 747 745 744 746 746 747 747 747 748 748 748 747 746 746 745 744 744 743 743 742 742 742 742 743 743 743 744 744 745 745 746 748 749 751 753 754 756 757 758 758 759 759 759 760 760 760 760 760 760 760 761 761
838 842 842 839 835 834 835 836 839 838 834 836 835 827 822 820 821 823 817 813 813 805 798 798 795 796 789 763 745 750 757 760 759 755 751 748 747 748 747 747 748 749 750 749 748 747 745 745 744 743 742 741 740 740 740 740 739 740 740 740 740 740 741 742 742 744 745 747 749 751 752 754 755 755 756 756 756 757 757 757 758 758 758 758 758 759
837 839 836 839 840 838 836 832 836 841 840 837 828 820 813 804 806 812 808 813 810 795 800 808 799 799 797 771 747 749 756 756 759 759 756 753 752 750 749 749 749 751 751 749 748 747 745 744 742 741 740 738 738 738 737 737 736 737 737 737 737 737 738 739 739 741 742 744 745 747 749 751 752 753 753 754 754 754 755 755 755 756 756 756 756 756
827 832 833 839 840 839 835 827 828 834 834 829 819 817 816 805 805 808 803 801 795 791 803 808 802 800 788 766 752 749 750 751 756 758 757 758 756 753 752 752 752 751 750 749 747 746 744 743 741 739 738 736 736 735 734 733 733 734 734 734 734 733 735 736 737 738 739 741 742 744 746 748 749 750 750 751 751 752 752 752 753 753 753 754 754 754
825 830 832 835 837 839 837 826 822 824 822 820 817 819 821 819 823 822 808 797 790 791 801 806 806 797 777 760 753 750 748 750 753 756 759 760 760 759 757 756 755 752 749 748 746 745 743 740 739 737 736 735 733 732 731 731 730 731 730 730 730 730 732 733 734 735 737 738 740 741 743 745 746 747 748 748 749 749 750 750 750 751 751 751 752 752
835 832 828 828 833 838 837 832 832 832 825 822 822 824 824 823 828 826 813 805 801 794 796 807 807 789 772 759 749 747 749 750 754 757 759 760 760 761 759 757 755 751 748 747 745 743 741 738 737 735 734 733 731 731 730 729 728 728 727 727 727 728 729 730 731 732 734 736 738 739 741 743 744 745 746 746 747 747 747 747 748 748 749 749 750 750
836 828 828 834 838 839 837 839 843 838 827 825 824 824 826 825 824 823 814 811 815 812 804 802 793 772 761 753 745 748 750 750 755 756 757 758 757 758 758 755 753 750 748 746 743 741 739 737 735 733 733 731 730 729 728 727 727 726 725 725 725 726 726 727 728 729 731 733 735 737 738 740 742 743 744 744 744 745 745 745 745 746 747 747 748 748
842 829 826 834 840 840 839 841 843 838 830 827 825 826 831 832 829 826 820 813 819 821 802 785 777 767 763 758 749 750 752 751 755 756 757 758 756 757 756 753 752 750 748 745 741 739 737 736 735 733 732 731 729 729 727 726 725 723 723 723 723 724 724 724 725 726 728 730 732 734 736 737 739 740 741 742 742 743 743 743 743 744 745 745 745 746
855 839 822 827 834 838 844 844 840 843 840 831 829 832 831 831 829 826 826 820 816 813 795 781 782 779 777 771 757 754 758 757 756 758 759 758 757 756 755 753 752 750 747 744 741 738 737 736 735 732 732 731 729 728 726 724 723 722 721 721 720 720 720 721 722 723 725 727 729 731 733 734 736 737 739 739 740 741 741 741 742 742 742 743 743 744
859 846 828 831 834 835 843 842 835 840 845 838 835 836 833 833 831 824 824 825 822 818 805 792 790 785 778 775 768 763 762 759 759 760 759 758 758 757 755 754 752 749 746 743 740 738 736 734 734 731 730 729 728 726 725 723 722 721 719 718 718 717 717 718 719 721 722 723 726 727 729 731 733 735 736 737 738 739 739 739 740 740 740 740 741 741
856 850 837 833 833 833 834 832 826 829 839 842 836 834 833 835 833 827 824 825 825 822 813 804 801 789 774 771 772 768 762 760 762 761 758 758 757 756 757 755 752 750 745 741 739 737 735 734 732 730 728 727 726 724 723 721 720 719 717 716 716 715 716 716 716 717 718 720 722 723 726 728 730 732 733 734 735 736 737 737 737 737 737 738 738 739
852 851 844 831 828 830 826 825 826 825 830 834 830 830 832 829 829 829 825 823 825 821 816 816 813 794 771 765 768 765 761 761 761 761 759 758 757 756 756 754 752 749 744 741 739 736 734 733 730 729 727 725 723 721 720 718 717 716 716 715 714 714 714 714 714 715 716 717 718 720 722 725 727 728 730 731 733 733 734 735 735 735 735 735 736 736
853 851 847 838 832 826 822 830 837 835 834 833 830 829 830 828 832 835 828 824 828 827 822 824 821 798 771 764 765 762 761 760 758 761 761 758 758 757 754 752 750 748 744 742 740 737 734 731 729 727 725 722 721 719 717 716 714 714 713 712 712 712 712 712 712 713 713 714 715 716 719 722 724 725 726 728 729 730 731 732 732 733 732 732 733 734
865 857 852 846 834 823 827 840 846 845 841 839 835 832 831 831 834 836 833 829 829 829 827 827 822 798 769 762 764 760 759 759 758 762 763 761 760 756 752 750 748 746 745 742 740 738 735 732 729 727 724 721 719 717 715 714 712 711 710 710 710 709 710 711 711 711 711 712 712 713 716 718 720 722 723 724 726 727 728 729 730 730 729 730 730 731
870 857 851 845 827 817 829 841 847 850 846 837 832 832 833 834 834 836 838 837 835 829 822 820 815 792 766 759 761 759 759 760 760 763 765 763 760 755 752 750 747 746 744 742 740 738 735 733 730 728 725 721 719 717 714 712 710 709 708 708 707 706 707 708 708 709 709 709 710 711 713 715 717 718 719 720 722 723 725 726 727 727 727 727 728 729
867 851 848 849 835 824 827 830 836 843 840 828 823 829 835 836 841 846 843 841 839 825 815 817 811 788 768 762 762 761 761 761 763 765 765 764 760 756 752 749 747 747 745 742 740 737 736 734 731 729 726 722 720 717 714 711 709 707 706 706 705 704 704 704 705 705 706 707 707 708 709 711 712 714 715 716 718 719 721 722 724 724 724 724 725 726
870 853 852 854 848 843 837 834 834 833 832 827 822 828 836 840 845 845 839 838 835 819 811 814 806 785 771 767 764 763 763 764 766 765 763 762 760 756 753 751 749 747 744 742 740 737 736 734 732 730 727 724 721 718 714 711 708 706 705 704 703 702 701 701 701 702 703 704 705 705 706 707 708 709 711 712 714 715 717 718 720 721 721 721 722 723
872 858 857 854 850 848 843 840 837 834 836 833 826 824 831 841 848 846 842 838 829 819 812 804 797 788 778 772 768 766 765 767 767 765 762 760 757 754 753 752 750 747 744 742 740 737 735 732 730 728 726 724 721 718 715 711 707 705 703 702 701 700 699 699 699 699 699 700 702 702 702 702 704 705 706 708 710 711 713 714 716 717 718 718 719 720
871 858 859 858 853 849 845 842 840 840 840 834 828 825 824 834 846 849 845 834 824 826 817 796 790 791 782 775 772 768 768 769 768 765 762 759 756 753 751 750 748 745 743 741 740 737 735 732 729 726 724 722 719 716 713 710 707 704 702 700 699 698 697 697 697 696 696 696 697 698 698 699 700 701 703 704 706 707 709 710 712 713 714 715 716 717
874 861 863 868 863 855 851 846 841 839 836 828 826 827 822 824 834 840 839 830 828 831 816 794 791 792 783 776 771 768 770 771 769 765 762 759 756 753 751 749 746 743 742 740 738 737 735 733 729 726 723 720 717 714 711 708 706 703 700 699 697 696 695 695 694 694 693 693 692 693 694 695 696 697 699 700 702 703 705 706 708 709 710 712 713 714
878 860 863 874 868 857 850 842 834 833 830 824 823 823 817 815 818 824 826 823 824 822 809 799 798 792 782 775 770 768 770 770 767 764 761 759 756 754 752 749 746 743 742 740 738 736 734 732 729 726 722 719 716 713 710 707 704 701 699 697 695 694 693 692 692 691 690 689 688 689 690 691 692 693 694 696 698 699 701 702 704 705 706 708 710 711
878 861 864 871 862 846 836 830 829 829 826 823 820 814 811 809 807 811 815 815 817 815 806 802 800 789 777 770 768 769 770 768 766 763 761 759 756 754 752 749 746 744 742 740 738 736 733 731 728 725 721 718 716 713 710 707 704 701 698 696 694 692 691 690 689 689 688 687 686 686 686 686 687 689 690 692 693 695 697 698 700 701 703 704 706 708
879 867 862 864 858 839 825 823 826 824 820 820 818 811 808 806 804 803 805 807 809 807 801 799 795 783 770 766 769 769 768 767 765 762 761 758 755 753 751 748 747 745 743 741 739 736 733 731 728 724 721 718 715 713 711 707 704 701 698 695 693 691 689 687 686 686 685 686 685 685 684 684 684 685 685 687 689 690 692 694 696 697 698 700 702 704
884 875 861 862 860 839 823 825 825 819 815 810 806 805 804 803 801 798 797 799 800 799 798 795 786 774 768 770 772 768 765 765 762 761 761 757 753 751 749 748 747 745 743 741 738 736 733 730 727 724 721 717 714 712 710 707 704 701 699 696 693 690 687 685 684 683 682 682 683 682 682 683 682 682 682 683 684 686 688 690 692 693 694 696 698 700
890 883 868 865 863 843 829 829 824 816 811 801 794 796 798 798 798 797 796 795 793 791 789 783 775 771 771 773 771 767 765 763 761 761 760 755 751 748 747 748 748 746 744 741 738 735 732 729 726 723 719 716 713 710 707 705 702 699 697 695 692 689 686 684 682 680 679 678 678 679 680 681 680 680 681 681 681 682 683 685 687 688 690 692 694 697
887 881 870 867 866 851 835 834 832 818 804 794 789 791 795 797 799 799 795 791 788 785 780 775 774 775 774 773 770 767 765 762 762 762 757 752 750 750 750 750 748 747 744 741 738 735 731 728 724 720 717 714 710 707 704 701 699 696 694 692 690 688 685 683 680 679 677 676 676 676 676 677 677 678 678 679 679 678 679 680 682 683 685 687 690 692
883 878 872 866 862 851 839 839 838 821 801 793 791 793 797 800 801 801 796 787 783 781 777 777 778 776 773 771 768 765 764 763 763 760 753 749 751 753 754 752 749 747 744 741 738 734 731 728 724 720 716 712 708 704 701 698 696 693 690 689 687 685 683 681 679 677 676 675 674 673 672 672 673 674 674 675 675 675 675 675 677 678 680 682 685 688
883 877 873 866 858 852 847 842 834 821 806 796 791 793 797 799 799 803 801 789 779 777 777 779 778 774 771 769 766 765 765 765 761 755 749 750 753 754 754 752 750 747 743 740 737 734 730 727 724 720 716 710 706 702 699 696 693 690 688 686 684 682 680 679 677 675 673 671 671 670 668 667 668 668 669 669 670 671 672 672 673 674 676 678 681 684
883 877 874 870 857 850 855 851 841 832 816 795 788 793 798 799 799 804 805 792 778 775 778 778 776 773 770 768 766 766 767 766 761 754 751 754 756 755 754 752 749 747 743 740 736 732 729 726 722 718 714 709 704 700 697 694 691 688 686 683 682 680 678 676 674 671 669 667 666 665 664 663 663 663 664 664 665 667 669 669 670 671 673 675 678 681
884 878 878 879 867 858 861 858 846 837 817 794 789 796 801 803 801 803 803 791 777 777 778 775 774 773 770 769 768 768 769 768 762 757 757 759 758 756 754 750 747 745 743 739 736 732 728 725 721 716 711 707 702 698 695 692 689 686 683 681 679 677 674 673 670 667 665 662 660 660 659 659 659 659 659 660 661 663 665 667 669 670 671 673 675 678
882 880 877 876 868 860 861 856 842 827 809 793 792 797 802 804 802 804 803 787 774 776 776 774 775 773 770 771 772 771 772 771 766 763 762 761 759 756 754 750 746 743 740 737 734 731 727 722 718 714 709 705 701 696 692 689 686 683 680 678 676 674 671 669 666 664 661 658 656 656 655 655 655 654 655 656 657 660 662 665 667 669 670 672 674 676
867 872 871 869 863 856 855 853 840 822 804 795 797 800 803 803 802 803 797 781 773 776 775 774 776 774 773 777 778 777 777 774 771 768 764 762 760 757 754 750 747 743 740 736 733 729 725 720 716 712 708 703 699 695 691 687 682 679 676 674 673 671 669 666 664 662 659 655 653 652 651 650 650 650 651 652 654 657 660 662 664 666 669 671 674 676
855 862 865 867 862 851 846 846 839 820 803 798 801 802 804 805 801 796 787 778 778 780 778 779 781 780 781 784 784 782 780 776 773 770 766 764 762 758 755 752 748 744 740 736 732 727 723 719 714 710 706 701 697 694 690 686 682 677 673 670 669 667 665 663 661 659 656 653 650 648 647 647 646 647 648 650 652 655 657 659 661 664 668 670 673 675
851 852 849 845 842 839 839 843 839 821 803 801 803 802 802 802 798 793 790 787 788 788 788 790 789 788 790 789 787 785 781 777 775 772 768 766 762 759 756 752 748 745 740 735 731 726 722 717 712 707 703 698 694 690 687 685 680 675 671 667 665 664 662 659 657 655 653 651 648 646 644 643 643 644 645 646 649 652 654 657 659 662 665 668 670 673
850 849 842 833 832 836 837 834 825 810 801 801 803 801 802 804 804 804 804 802 799 799 799 798 796 795 795 793 790 788 784 780 777 773 769 766 762 758 754 749 745 742 737 733 729 724 720 715 709 704 700 696 692 688 685 682 678 674 669 665 662 661 659 656 654 652 650 649 646 643 641 639 639 640 641 643 646 649 652 654 656 658 661 664 667 669
843 842 842 838 835 834 831 822 812 807 806 807 806 807 812 814 814 814 814 811 808 807 805 803 802 800 798 796 793 789 785 782 778 774 770 765 760 756 751 746 742 737 732 728 724 720 717 712 707 702 697 693 690 685 681 679 675 670 665 661 658 657 654 652 651 649 647 646 643 640 638 636 636 636 637 639 641 644 647 650 652 655 658 660 663 665
837 841 845 842 836 830 824 816 814 818 819 817 816 819 821 821 819 819 819 817 814 811 809 807 805 801 799 797 793 789 785 781 777 772 767 762 756 752 747 742 738 733 728 724 719 716 713 708 703 699 694 690 687 683 678 675 671 666 662 658 655 653 650 648 647 645 643 642 640 637 636 634 633 634 635 636 638 640 643 645 647 650 653 656 659 661
842 848 847 841 837 833 825 820 826 833 831 825 824 824 825 824 823 822 822 820 817 814 811 808 805 801 798 794 790 786 782 778 773 768 762 757 752 747 742 737 733 729 725 720 716 713 709 705 700 696 691 687 683 679 675 671 667 663 659 656 653 651 647 645 643 640 639 638 636 634 633 631 630 631 633 635 636 638 640 642 644 646 648 651 654 656
849 851 849 844 841 835 828 829 837 840 834 831 830 828 826 826 825 823 823 820 817 813 810 806 802 798 794 790 786 782 777 773 769 763 757 753 748 743 738 734 729 725 721 717 713 710 706 701 697 692 688 684 680 675 671 667 662 659 656 653 651 648 644 641 639 636 635 633 631 630 629 628 627 627 629 632 633 635 636 638 641 642 643 644 646 649
854 854 854 852 848 840 836 840 845 842 836 835 834 830 827 827 824 822 821 818 814 811 806 802 799 795 790 786 782 777 772 767 763 759 754 749 744 739 735 730 726 722 718 713 710 706 702 698 693 689 685 680 676 672 668 663 659 656 653 650 647 643 640 637 634 632 630 629 627 626 625 624 623 624 626 628 630 631 632 634 636 638 639 640 642 644
864 864 862 862 861 856 852 854 855 852 847 842 837 834 832 829 825 822 820 816 812 808 803 799 794 791 787 783 778 773 767 761 757 753 749 745 741 736 731 726 722 718 713 709 706 702 698 694 690 686 682 677 673 669 664 660 656 652 649 646 643 639 636 633 630 628 626 624 623 621 620 620 620 620 622 625 627 629 631 633 634 636 637 639 641 644
872 872 870 871 871 867 862 860 859 858 853 846 840 836 833 829 826 823 819 814 810 806 802 797 792 786 782 778 774 769 763 757 752 749 745 741 737 732 727 723 718 713 708 705 701 697 694 690 686 682 678 674 670 665 661 656 652 648 645 642 638 635 632 629 626 624 622 620 619 617 616 616 616 617 619 622 624 626 629 631 633 635 636 638 640 643